sat.trackr.live / text

‹ back to catalog

STARLINK-30423

NORAD 57843 · 2023-141D

PAYLOAD ACTIVE UNKNOWN

§ Identity

Operator
Country
US
Launch date
2023-09-12
Launch site
AFWTR
Launch vehicle
Mass (kg)
RCS (m²)

Purposes: comms

External: N2YO · Heavens-Above · Gunter

§ Orbital elements

Epoch: 2026-09-20T21:35:33.183168Z

Period
94.01 min
Inclination
53.1585°
Eccentricity
0.0001199
Mean motion
15.31704728 rev/d
Perigee alt
469.9 km
Apogee alt
471.5 km
Semi-major
6,848.9 km
B*
1.3844e-5
RAAN
95.8980°
Arg perigee
90.3303°
Mean anomaly
269.7836°
Rev number
17,023

§ Raw data

STARLINK-304231 57843U 23141D   26263.89968962  .00000065  00000+0  13844-4 0  99982 57843  53.1585  95.8980 0001199  90.3303 269.7836 15.31704728170235

JSON: /api/v1/satellites/57843 · /tle

For live sub-satellite position, see the globe view (requires WebGL).

§ Visibility from observer

Set your observer location to see the next 7 days of passes ≥ 10°. The values pass through the URL so the page stays shareable.

No JS? Fill the form by hand. The geolocation button needs JavaScript.